Presure
141 152 159 181 188 156 179 180 169 165 160 158 163 172 181 162 189 188 184 186 178 175 181 175 183 177 172 161 184 178 182 172 178 169 164 176 172 178 188 184 182 173 175 175 192
169 136 159 170 191 169 143 156 148 177 178 157 186 136 171 186 184 182 182 177 185 179 185 180 178 179 179 180 170 180 177 180 189 182 173 183 181 186 177 187 174 177 179 184 181
171 189 172 148 174 169 151 180 186 176 157 165 183 187 180 166 195 160 181 179 185 183 182 185 184 190 178 178 178 179 181 173 175 184 196 171 179 172 199 172 171 180 189 185 175
167 160 136 165 150 185 180 142 180 173 163 185 185 181 162 179 184 189 208 184 185 186 172 165 183 186 182 184 171 171 183 178 177 183 197 187 191 195 192 194 193 192 182 184 184
158 181 188 168 190 167 167 161 173 180 178 174 185 183 185 178 172 162 184 175 209 163 203 191 194 164 190 184 189 180 193 183 197 185 179 178 184 197 179 171 179 179 180 177 178
165 142 194 167 171 180 176 170 154 174 173 174 176 190 198 168 194 183 175 168 184 175 171 196 184 188 164 181 172 177 182 179 181 188 175 163 176 177 179 169 168 174 174 175 166
138 133 138 144 193 183 152 150 171 166 184 168 178 154 160 148 184 177 173 154 154 180 161 194 182 192 178 168 160 185 184 183 186 182 186 183 137 168 169 178 173 180 175 171 171
151 164 151 135 175 174 170 157 172 185 174 178 184 141 180 185 167 174 173 166 163 170 176 153 189 181 177 174 169 174 181 181 181 166 180 171 158 168 161 169 180 185 176 164 165
183 180 174 159 179 177 180 162 157 151 164 168 163 176 172 177 147 178 178 177 162 149 184 165 156 169 164 171 177 171 182 184 178 181 156 171 171 157 157 180 185 178 181 184 194
163 180 171 183 155 179 155 173 154 181 151 178 188 188 142 172 161 176 174 163 194 190 187 181 177 168 174 166 175 184 183 177 186 178 179 175 177 173 185 180 192 182 199 194 192
169 163 187 170 134 188 191 158 179 186 180 160 186 189 180 195 188 178 188 164 183 188 186 195 173 181 180 191 175 176 180 185 186 177 169 193 192 190 192 196 188 190 198 195 187
170 186 167 189 177 188 193 159 189 180 175 176 187 182 179 157 187 163 194 173 189 187 174 181 170 178 174 190 185 190 185 185 179 184 193 193 193 196 187 189 182 192 198 196 199
174 197 186 171 200 178 198 181 172 189 181 160 150 200 187 194 186 184 192 179 186 191 188 183 188 193 187 199 200 201 195 201 195 197 198 200 195 193 198 200 194 195 200 200 197
164 159 173 177 179 170 176 175 170 177 185 188 166 163 183 195 185 191 185 180 170 188 191 192 176 180 169 182 194 192 196 187 192 192 204 198 190 194 195 193 196 200 201 204 206
163 187 196 168 178 171 197 173 172 158 184 195 188 188 185 201 183 192 191 182 160 160 183 171 164 174 192 197 199 196 196 188 181 176 180 201 191 186 192 197 194 184 192 98 209
171 194 189 193 188 173 208 167 175 191 205 176 156 147 197 192 190 161 189 188 181 170 179 181 184 170 181 193 196 192 186 185 183 170 198 204 189 192 193 146 207 199 217 192 189
205 218 194 178 199 180 197 195 161 159 180 186 187 180 173 200 171 174 180 167 183 167 167 187 184 166 177 180 180 193 198 195 183 181 182 204 197 200 195 192 201 204 211 199 194
206 175 221 179 189 168 163 182 204 159 193 177 172 157 194 158 181 154 163 171 173 194 180 186 175 178 171 162 194 188 189 174 194 195 190 184 213 205 182 188 195 201 197 227 199
198 169 211 177 198 193 188 209 183 195 170 160 198 181 186 189 195 183 188 182 182 185 179 194 180 175 184 179 182 183 181 173 182 185 183 182 210 198 189 200 203 194 208 209 225
211 200 186 202 172 207 175 213 190 157 202 196 162 198 200 159 193 187 183 193 177 177 182 195 183 183 170 166 183 177 176 194 184 180 186 217 209 187 191 200 211 217 229 235 239
218 216 203 200 205 200 198 196 194 200 204 203 197 201 176 197 165 179 167 192 189 176 177 172 176 194 195 196 204 201 192 184 188 184 196 206 198 200 205 226 228 232 233 241 255
219 221 213 205 207 211 208 207 199 195 202 210 204 194 172 197 201 202 199 178 182 195 192 201 199 189 182 192 197 198 183 183 214 205 185 201 213 92 95 227 229 223 234 248 263
243 242 224 216 210 214 206 209 204 210 215 208 204 212 189 196 208 212 210 217 206 206 202 200 199 201 211 199 204 188 195 197 211 208 214 219 228 80 140 231 231 238 247 259 311
260 254 252 260 243 230 224 223 217 216 222 213 213 211 213 208 214 209 207 208 208 217 204 207 214 205 203 204 203 206 210 211 209 213 218 221 220 220 233 232 243 248 263 325 341
262 269 281 281 278 257 262 248 248 227 210 217 225 217 218 217 211 217 214 216 214 215 219 209 208 212 213 213 215 211 207 212 214 215 219 225 228 227 238 246 246 259 339 338 321
316 300 269 256 299 294 270 312 261 259 241 229 222 220 228 232 224 219 221 220 91 214 217 217 216 219 221 225 219 221 219 217 218 225 229 235 235 240 242 242 302 329 326 312 288
303 327 285 323 319 296 311 301 289 299 299 251 247 229 224 229 234 230 225 220 219 226 226 224 218 224 222 219 223 122 221 226 231 236 233 243 246 256 253 324 329 325 309 286 276
Wind_Speed
76 83 87 95 83 84 84 76 89 90 87 81 90 81 83 74 78 74 70 69 67 66 66 64 68 67 67 66 73 69 69 62 68 57 56 61 59 63 63 61 60 62 63 61 60
97 72 89 90 80 86 73 88 78 92 96 83 87 64 84 85 77 74 72 65 70 68 71 68 71 69 70 71 69 70 67 66 68 70 61 68 65 65 60 61 59 62 64 62 61
97 85 99 77 92 86 83 85 91 92 77 92 85 83 81 71 79 61 70 71 74 74 72 74 71 74 71 70 70 72 72 65 66 69 69 58 64 60 63 62 62 63 62 62 62
96 95 70 93 84 84 87 67 88 89 90 88 86 82 72 77 76 75 73 69 70 72 63 65 72 72 72 77 64 67 74 70 65 68 66 67 68 65 59 57 58 60 60 63 64
99 93 88 88 82 93 75 90 88 89 85 80 82 82 84 78 69 64 68 65 69 64 75 73 76 66 74 72 76 74 73 67 67 68 65 62 61 60 58 57 57 57 59 61 63
100 76 84 80 90 87 88 77 81 88 90 88 80 80 78 68 74 70 69 68 66 65 64 72 68 73 61 68 66 71 74 69 68 68 65 58 61 58 61 58 59 62 63 63 64
65 63 63 76 75 82 87 80 88 92 84 90 83 62 75 58 72 74 73 58 61 70 63 70 73 70 73 70 64 72 73 74 72 70 69 70 72 60 62 69 66 69 66 67 69
84 100 76 63 89 84 90 84 83 75 85 75 79 59 75 72 78 74 73 73 70 73 73 67 74 75 74 74 74 75 75 74 74 64 72 67 66 67 66 68 73 76 74 71 74
80 84 94 100 87 86 84 86 78 68 86 91 85 84 83 82 59 79 77 78 74 63 75 72 64 74 71 76 78 76 76 76 72 74 70 74 72 74 73 81 79 75 74 76 74
105 86 95 90 96 90 98 82 86 81 88 89 83 81 76 79 80 79 75 69 77 80 83 81 80 77 79 76 82 83 81 80 80 76 78 80 83 78 85 83 79 78 78 77 75
104 107 91 102 70 91 87 94 88 80 87 93 82 81 85 81 83 82 80 79 80 81 84 82 83 84 79 80 81 81 82 82 83 81 79 83 84 83 84 78 81 82 80 81 79
104 97 95 95 97 90 84 85 81 86 87 90 89 91 87 70 83 76 81 80 80 80 82 85 81 85 80 84 82 83 84 83 83 82 80 79 79 76 79 81 82 85 84 83 84
101 92 95 98 91 91 83 89 90 83 87 83 73 83 89 84 84 86 81 85 81 80 84 85 87 86 87 83 81 78 77 75 76 77 79 75 77 79 79 80 80 83 85 87 84
107 93 103 103 87 99 97 93 87 91 82 78 88 67 80 85 84 87 86 86 80 81 81 83 78 77 71 76 82 79 80 79 80 75 79 76 73 80 75 80 85 88 88 88 89
105 109 108 107 105 106 98 108 102 79 91 70 72 75 79 82 84 86 87 88 72 71 86 73 69 78 85 82 81 81 82 83 75 70 70 85 79 83 81 83 85 82 87 51 93
100 109 112 99 95 101 102 99 101 94 88 92 84 71 75 82 86 76 89 87 91 84 89 90 83 78 81 85 82 84 84 84 81 70 85 85 81 85 82 51 93 92 98 84 85
118 113 107 113 105 112 106 104 88 75 83 87 80 86 93 80 91 91 82 85 93 87 81 95 90 73 86 90 89 88 89 90 82 80 78 84 88 90 91 90 93 93 97 88 88
123 110 117 114 112 109 92 115 109 74 93 97 95 80 84 80 94 82 88 92 90 93 98 96 91 93 83 77 91 93 92 80 94 94 88 79 85 88 91 93 96 96 89 104 95
120 95 119 121 114 119 121 121 103 101 97 83 95 99 93 91 90 96 90 96 99 98 97 92 87 88 96 94 93 91 91 81 88 91 85 84 88 90 97 99 102 88 102 104 109
132 126 110 122 111 126 112 122 108 86 109 106 88 97 100 86 94 99 94 94 103 102 102 100 102 99 91 83 98 93 86 99 96 88 92 90 92 99 101 101 103 105 105 107 109
136 137 126 124 133 130 125 112 111 112 114 111 107 108 100 101 98 103 98 100 100 105 105 98 100 103 102 103 103 101 101 100 102 96 102 100 93 102 99 104 105 104 107 110 116
141 139 135 133 138 137 135 128 120 113 121 125 117 107 96 107 109 109 106 105 103 107 109 107 107 106 102 103 104 103 102 100 105 105 98 103 94 17 13 103 105 101 108 113 117
149 148 143 140 137 141 129 136 125 129 128 123 120 123 105 109 115 116 113 112 112 112 109 110 109 109 109 105 106 102 102 99 106 105 106 113 103 18 55 108 108 114 115 116 82
142 143 146 148 151 146 142 142 146 138 137 128 130 126 124 123 122 116 113 113 115 114 113 115 115 110 108 110 107 106 106 107 108 110 112 101 104 107 114 110 116 114 110 68 48
134 133 131 133 133 139 136 136 137 136 133 137 137 127 124 125 118 118 119 119 116 115 117 114 113 111 109 109 109 104 103 107 112 110 112 107 108 113 113 114 111 112 55 42 34
118 119 127 126 120 127 130 117 129 132 129 131 129 131 128 125 123 123 122 120 11 115 115 114 115 113 111 111 108 108 105 109 110 113 114 111 105 112 110 107 76 53 38 33 34
113 111 95 107 109 119 116 113 114 109 115 123 124 119 122 123 126 124 120 119 119 120 117 117 114 115 109 107 110 37 108 114 114 113 114 113 112 112 109 63 48 36 31 31 32
Wind_Direction
275 274 270 272 272 278 275 267 275 280 284 288 287 278 285 282 286 286 285 284 284 284 282 283 279 281 282 284 285 286 286 286 288 285 285 292 290 293 292 290 292 288 283 282 288
270 271 274 272 265 273 280 280 281 272 275 284 276 264 285 284 284 285 285 283 284 282 282 280 280 280 280 281 282 285 287 290 288 287 289 292 291 294 291 291 286 288 289 289 288
270 264 270 272 272 272 277 265 265 272 278 281 279 278 280 283 280 281 281 281 282 281 282 281 279 279 281 282 283 284 286 288 288 291 287 286 291 289 291 286 287 289 287 286 287
270 272 268 273 275 265 268 272 269 272 277 273 276 277 277 281 280 280 281 278 279 279 279 277 280 279 280 280 283 284 287 287 288 290 290 290 291 294 289 289 289 287 288 288 286
273 267 265 270 260 273 265 276 271 271 273 272 274 275 275 277 278 281 280 278 282 276 276 278 279 277 283 281 280 282 285 284 290 288 287 287 290 290 286 286 287 286 286 285 286
270 275 261 261 268 264 267 266 275 271 273 275 273 271 268 277 273 275 278 280 279 280 279 278 280 279 279 282 283 285 287 286 285 286 285 278 286 288 289 280 281 286 285 284 276
260 257 265 272 260 259 279 280 272 274 269 275 272 275 279 270 271 275 278 274 275 280 281 278 278 278 280 279 283 286 285 286 286 287 285 286 279 282 285 289 288 287 284 282 281
273 266 260 257 262 264 262 274 262 262 269 265 265 262 269 268 277 276 275 282 283 282 280 272 277 276 278 281 284 284 284 284 285 278 284 283 275 283 277 286 289 287 281 274 276
258 269 262 269 264 259 259 272 258 266 273 270 273 268 273 271 270 272 274 274 282 271 275 281 277 279 282 282 280 284 283 283 281 283 273 286 286 276 276 290 288 286 285 285 287
262 257 259 262 272 260 274 267 275 265 273 265 265 264 262 267 283 274 276 276 277 273 273 274 274 279 278 283 281 281 283 285 282 283 284 284 286 287 289 289 291 287 292 291 291
256 260 260 259 253 261 263 270 265 264 263 272 268 267 265 268 266 272 272 272 275 276 275 273 277 276 277 277 281 282 283 282 282 283 282 284 286 287 292 291 289 291 292 291 286
261 255 261 258 261 263 260 267 260 263 265 269 268 269 271 274 271 277 271 273 274 274 275 275 277 279 281 279 279 279 280 281 282 284 286 288 290 290 290 289 288 289 286 285 283
255 257 254 260 260 258 265 257 261 267 261 272 270 269 271 269 271 273 269 274 275 275 273 275 277 279 280 280 281 282 282 285 286 287 286 289 287 288 288 289 288 288 286 285 284
261 265 256 254 257 261 258 260 263 263 261 262 270 270 269 268 270 269 270 272 277 274 274 274 276 278 277 280 281 283 285 283 287 289 289 290 289 289 288 289 287 285 286 286 285
262 253 256 264 255 258 265 258 262 264 262 266 263 269 268 266 267 267 268 270 272 270 275 278 272 278 281 281 282 284 284 285 284 283 290 287 289 288 288 288 284 286 286 281 286
260 258 253 260 261 259 263 260 260 265 267 261 266 262 266 267 263 270 267 267 269 276 276 276 275 278 280 281 281 282 283 283 284 282 286 284 289 286 289 285 286 285 286 285 285
263 260 257 252 258 254 262 260 257 258 263 257 261 265 267 262 268 269 265 274 267 275 276 272 275 274 280 281 283 280 279 280 281 284 286 287 288 288 288 286 286 287 288 286 288
260 257 252 252 254 259 257 256 263 257 264 261 259 262 259 259 258 268 273 273 274 267 270 268 276 276 279 273 276 279 281 281 282 285 285 286 288 287 287 286 287 288 289 291 291
254 257 253 253 257 255 256 261 258 261 261 262 262 256 257 257 261 260 261 265 266 268 271 271 271 273 275 278 279 280 279 279 283 283 285 287 288 286 285 286 287 291 291 291 293
252 252 254 254 256 258 257 258 259 257 262 262 260 262 263 261 260 263 266 260 267 269 270 270 272 272 276 278 279 280 278 279 281 283 286 287 286 285 286 288 290 290 294 297 298
251 251 253 253 254 255 256 258 258 260 261 260 261 263 261 262 260 262 265 261 262 267 269 272 273 272 274 275 277 277 277 280 282 285 285 285 286 286 289 292 292 296 299 302 305
250 249 248 251 253 254 256 258 257 257 259 261 262 261 260 262 264 264 264 263 263 264 265 269 269 271 274 275 274 275 278 281 283 282 285 287 290 259 258 293 296 299 301 303 307
246 247 247 248 250 251 255 256 257 259 258 257 259 261 258 261 265 266 267 265 264 264 264 266 267 269 271 272 274 277 278 280 282 283 287 288 295 278 287 296 299 301 302 306 299
247 247 248 248 248 248 251 253 255 258 257 256 258 258 260 261 262 261 262 263 264 265 264 266 268 268 271 272 273 276 279 282 283 286 286 292 292 297 296 300 301 302 303 299 292
245 248 250 250 252 252 251 251 250 248 253 258 259 258 259 259 259 260 260 261 262 265 265 265 267 269 271 273 275 276 279 281 282 285 289 291 295 295 298 300 302 302 295 289 285
244 244 248 249 249 252 248 248 251 249 247 248 251 256 258 258 258 258 259 260 232 263 265 266 269 271 272 274 276 278 280 281 283 285 289 292 293 294 298 300 295 292 284 280 283
246 245 245 244 245 248 248 250 251 248 249 250 250 250 254 258 259 257 259 260 261 264 266 268 269 272 273 275 275 270 281 281 284 288 289 292 293 294 297 290 285 278 273 274 280